OBJECT_NAME,OBJECT_ID,EPOCH,MEAN_MOTION,ECCENTRICITY,INCLINATION,RA_OF_ASC_NODE,ARG_OF_PERICENTER,MEAN_ANOMALY,EPHEMERIS_TYPE,CLASSIFICATION_TYPE,NORAD_CAT_ID,ELEMENT_SET_NO,REV_AT_EPOCH,BSTAR,MEAN_MOTION_DOT,MEAN_MOTION_DDOT PROBA-1,2001-049B,2026-09-12T08:17:45.621888,15.07796467,.00541211,97.9620,266.9537,186.2796,173.7759,0,U,26958,999,35675,.63051138E-4,.924E-5,0 CUTE-1 (CO-55),2003-031E,2026-09-12T00:03:53.668800,14.24379869,.00084928,98.6770,262.4840,297.1642,62.8671,0,U,27844,999,20403,.96669711E-4,.18E-5,0 CUBESAT XI-IV (CO-57),2003-031J,2026-09-11T13:01:51.342240,14.23658642,.00086616,98.6802,261.6728,319.6234,40.4301,0,U,27848,999,20366,.84348816E-4,.149E-5,0 APRIZESAT 4,2009-041D,2026-09-12T04:10:02.574624,14.83986662,.00440403,98.1350,332.2012,40.8709,319.5793,0,U,35684,999,92426,.5960576E-4,.445E-5,0 APRIZESAT 3,2009-041F,2026-09-12T00:44:15.960192,14.96444580,.00620614,98.2178,52.4925,139.6292,220.9559,0,U,35686,999,92936,.84057226E-4,.922E-5,0 PROBA-2,2009-059B,2026-09-12T05:46:31.104192,14.54892968,.00136101,98.2481,77.4098,17.3162,342.8497,0,U,36037,999,89418,.32684322E-4,.95E-6,0 APRIZESAT 5,2011-044E,2026-09-12T06:57:22.196736,14.81203847,.00534367,98.2473,190.8126,82.3476,278.3800,0,U,37792,999,81168,.91603507E-4,.671E-5,0 APRIZESAT 6,2011-044F,2026-09-11T17:18:45.082368,14.77018811,.00432204,98.2285,166.9595,167.2665,222.6812,0,U,37793,999,80992,.654487E-4,.412E-5,0 PROBA-V,2013-021A,2026-09-11T22:05:11.120640,14.23612519,.0003116,98.3697,229.2878,229.2858,130.8051,0,U,39159,999,69345,.31763E-4,.31E-6,0 APRIZESAT 7,2013-066A,2026-09-12T07:00:55.485504,14.91742937,.00341949,97.7793,207.3050,283.3216,76.4190,0,U,39416,999,69421,.10094955E-3,.969E-5,0 APRIZESAT 8,2013-066K,2026-09-12T07:23:55.541472,14.87789358,.00458436,97.8290,201.5943,1.2242,358.9078,0,U,39425,999,69262,.92470479E-4,.803E-5,0 BUGSAT-1 (TITA),2014-033E,2026-09-12T07:03:28.899072,15.16343749,.00262654,98.0430,352.9861,241.7995,118.0583,0,U,40014,999,66903,.19577618E-3,.3752E-4,0 SAUDISAT 4,2014-033G,2026-09-11T22:51:47.644992,14.79636265,.00454392,97.7714,38.1568,149.4833,210.9037,0,U,40016,999,65890,.74861989E-4,.519E-5,0 APRIZESAT 9,2014-033J,2026-09-11T22:44:06.777024,14.74302714,.00646252,97.9183,26.0869,281.6394,77.7566,0,U,40018,999,65634,.58665819E-4,.347E-5,0 APRIZESAT 10,2014-033K,2026-09-11T22:15:09.172800,14.70963886,.007858,97.9759,20.0037,357.8676,2.2184,0,U,40019,999,65500,.46048995E-4,.242E-5,0 TECHDEMOSAT-1 (TDS-1),2014-037H,2026-09-12T00:14:45.514464,15.14382638,.0005577,98.3872,255.9365,351.0486,9.0643,0,U,40076,999,66136,.33607409E-3,.6091E-4,0 TECHNOSAT,2017-042E,2026-09-12T00:06:34.519680,15.05383808,.00181338,97.4390,49.4446,153.0581,207.1592,0,U,42829,999,49976,.1187264E-3,.1648E-4,0 FLYING LAPTOP,2017-042G,2026-09-12T07:02:12.418656,15.01579794,.00162214,97.4996,47.7012,183.7209,176.3898,0,U,42831,999,49952,.1276033E-3,.1599E-4,0 HAWK-A,2018-099H,2026-09-12T02:01:02.444448,15.25626816,.0033308,97.3826,306.2033,341.9049,18.1001,0,U,43765,999,42634,.19352423E-3,.4923E-4,0 HAWK-B,2018-099AN,2026-09-12T01:56:15.264672,15.23712514,.00311976,97.3876,305.4277,1.3388,358.7927,0,U,43794,999,42626,.17964922E-3,.4299E-4,0 HAWK-C,2018-099AT,2026-09-12T02:52:19.833600,15.29308639,.00385033,97.3803,307.5919,339.6826,20.2880,0,U,43799,999,42719,.20316691E-3,.5826E-4,0 SALSAT,2020-068K,2026-09-11T23:28:21.147456,15.30885844,.00094697,97.8880,263.4175,9.1845,350.9566,0,U,46495,999,32863,.20261281E-3,.5968E-4,0 HAWK-2C,2021-006CT,2026-09-12T02:32:36.734208,15.35601704,.0005078,97.2201,297.7027,240.5885,119.4853,0,U,47502,999,31283,.13097135E-3,.4455E-4,0 HAWK-2A,2021-006CW,2026-09-12T02:33:14.667264,15.35643745,.00045774,97.2243,298.4339,245.9700,114.1066,0,U,47505,999,31283,.13008352E-3,.443E-4,0 HAWK-2B,2021-006CZ,2026-09-12T02:16:32.691648,15.35802806,.00050686,97.2115,296.6200,242.9404,117.1324,0,U,47508,999,31283,.15259491E-3,.5237E-4,0 HAWK-3B,2021-059BE,2026-09-12T01:58:54.365952,15.77185126,.0003853,97.6558,100.4846,16.6556,343.4835,0,U,48931,999,29151,.28576251E-3,.46637E-3,0 HAWK-3C,2021-059BX,2026-09-12T03:29:48.264000,15.77195428,.00038285,97.6663,106.3796,18.8004,341.3402,0,U,48948,999,29152,.30158785E-3,.49265E-3,0 HAWK-3A,2021-059CG,2026-09-12T03:29:38.775552,15.77191558,.00039926,97.6610,103.5180,18.4977,341.6432,0,U,48957,999,29152,.2776591E-3,.45318E-3,0 HAWK-5C,2022-057Y,2026-09-11T23:26:01.312512,15.54185352,.00048049,97.6672,60.4797,109.0523,251.1250,0,U,52754,999,23981,.27391592E-3,.17743E-3,0 HAWK-5B,2022-057AA,2026-09-12T07:09:21.622752,15.54185388,.00055222,97.6690,59.1887,103.4260,256.7609,0,U,52756,999,23986,.23729838E-3,.15354E-3,0 HAWK-5A,2022-057AB,2026-09-12T05:36:22.392000,15.54180467,.00054219,97.6684,59.9463,106.6517,253.5331,0,U,52757,999,23985,.23252981E-3,.1504E-3,0 HAWK-6B,2023-011A,2026-09-12T05:58:32.793888,15.23580715,.00035852,40.4973,204.0044,282.2968,77.7440,0,U,55324,999,20112,.14332867E-3,.3306E-4,0 HAWK-6C,2023-011C,2026-09-12T05:57:38.273760,15.23585105,.00043396,40.4962,200.8365,273.3751,86.6562,0,U,55326,999,20113,.15483329E-3,.3588E-4,0 HAWK-6A,2023-011D,2026-09-12T04:23:16.766016,15.23582905,.00039486,40.4973,202.8517,269.8255,90.2102,0,U,55327,999,20112,.15147489E-3,.3505E-4,0 HAWK-7A,2023-054P,2026-09-12T03:45:07.180704,15.28147130,.00047484,97.2554,140.2654,87.6920,272.4863,0,U,56191,999,19030,.15291208E-3,.4124E-4,0 HAWK-7B,2023-054R,2026-09-12T03:45:01.672704,15.28149037,.00038112,97.2579,138.5591,95.0118,265.1557,0,U,56193,999,19030,.15263725E-3,.4116E-4,0 HAWK-7C,2023-054Y,2026-09-12T03:44:50.356032,15.28148750,.00041233,97.2557,139.3009,86.8068,273.3644,0,U,56200,999,19030,.15186071E-3,.4095E-4,0